INTELSAT 32E (IS-32E) (41945 NORAD) Tracking and Keplerian Element Data

This shows tracking and keplerian element data for the satellite.

Feedback or suggestion? Click here.




ElementValue
Catalog41945
NameINTELSAT 32E (IS-32E)
Epoch Orbit1696
Epoch Day270.19563417
Epoch Year2021
RAAN172.2794
Inclination0.001
Eccentricity2.24E-05
Argument of Perigee310.4052
Mean Anonmoly270.7931
Mean Motion1.00274778
Decay Rate-2.7E-06
L11 41945U 17007B 21270.19563417 -.00000270 00000-0 00000+0 0 9995
L22 41945 0.0010 172.2794 0000224 310.4052 270.7931 1.00274778 16968

Live tracking and technical data element details for INTELSAT 32E (IS-32E) (NORAD 41945). INTELSAT 32E (IS-32E) can be tracked NOW for your location showing map with azimuth and elevation plus other details from your city location.

Track the satellite on the map from your city or location and see movement details for azimuth, elevation, latitude, longitude, range, height, and movement on the map or in text.







IsCatalogInMostPopularTable: catalog: 41945, numindb: 631
Update: records affected: 1



GetName: 41945 INTELSAT 32E (IS-32E)

Hit Count: updated at: Tue, 28 Sep 2021 16:54:40 GMT